Hourly Weather Achukevichi

Today, 10 August, Monday

Time Temperature Precipitation Wind Pressure Humidity
00:00 +19°C° 0 mm 1 mps 750 mmHg 92%
01:00 +19°C° 0 mm 1 mps 750 mmHg 92%
02:00 +18°C° 0 mm 1 mps 750 mmHg 92%
03:00 +18°C° 0 mm 1 mps 750 mmHg 92%
04:00 +18°C° 0 mm 1 mps 750 mmHg 93%
05:00 +18°C° 0 mm 1 mps 750 mmHg 93%
06:00 +19°C° 0 mm 1 mps 750 mmHg 89%
07:00 +21°C° 0 mm 1 mps 750 mmHg 84%
08:00 +22°C° 0 mm 1 mps 751 mmHg 80%
09:00 +24°C° 0 mm 1 mps 751 mmHg 73%
10:00 +25°C° 0 mm 2 mps 751 mmHg 67%
11:00 +27°C° 0 mm 2 mps 751 mmHg 60%
12:00 +27°C° 0.6 mm 2 mps 750 mmHg 59%
13:00 +27°C° 0.6 mm 2 mps 750 mmHg 58%
14:00 +28°C° 0.6 mm 2 mps 750 mmHg 56%
15:00 +28°C° 0.3 mm 2 mps 750 mmHg 58%
16:00 +28°C° 0.3 mm 2 mps 749 mmHg 60%
17:00 +27°C° 0.3 mm 2 mps 749 mmHg 62%
18:00 +26°C° 0.2 mm 2 mps 749 mmHg 69%
19:00 +24°C° 0.2 mm 2 mps 749 mmHg 77%
20:00 +21°C° 0.2 mm 2 mps 749 mmHg 85%
21:00 +20°C° 0.2 mm 2 mps 749 mmHg 87%
22:00 +19°C° 0.2 mm 2 mps 749 mmHg 89%
23:00 +19°C° 0.2 mm 2 mps 750 mmHg 91%

Tomorrow, 11 August, Tuesday

Time Temperature Precipitation Wind Pressure Humidity
00:00 +18°C° 0.1 mm 2 mps 750 mmHg 92%
01:00 +18°C° 0.1 mm 2 mps 750 mmHg 93%
02:00 +17°C° 0.1 mm 2 mps 750 mmHg 94%
03:00 +17°C° 0 mm 2 mps 750 mmHg 95%
04:00 +17°C° 0 mm 2 mps 750 mmHg 96%
05:00 +16°C° 0 mm 2 mps 750 mmHg 97%
06:00 +17°C° 0 mm 3 mps 750 mmHg 93%
07:00 +17°C° 0 mm 3 mps 750 mmHg 90%
08:00 +18°C° 0 mm 3 mps 751 mmHg 87%
09:00 +19°C° 0 mm 4 mps 751 mmHg 78%
10:00 +21°C° 0 mm 4 mps 751 mmHg 69%
11:00 +22°C° 0 mm 4 mps 751 mmHg 61%
12:00 +22°C° 0 mm 4 mps 751 mmHg 58%
13:00 +23°C° 0 mm 4 mps 751 mmHg 55%
14:00 +23°C° 0 mm 4 mps 751 mmHg 52%
15:00 +23°C° 0 mm 4 mps 751 mmHg 54%
16:00 +23°C° 0 mm 4 mps 751 mmHg 57%
17:00 +22°C° 0 mm 4 mps 751 mmHg 59%
18:00 +20°C° 0 mm 4 mps 751 mmHg 65%
19:00 +19°C° 0 mm 3 mps 751 mmHg 71%
20:00 +17°C° 0 mm 3 mps 751 mmHg 77%
21:00 +16°C° 0 mm 2 mps 752 mmHg 80%
22:00 +15°C° 0 mm 2 mps 752 mmHg 83%
23:00 +14°C° 0 mm 2 mps 752 mmHg 86%

Day after tomorrow, 12 August, Wednesday

Time Temperature Precipitation Wind Pressure Humidity
00:00 +13°C° 0 mm 2 mps 752 mmHg 87%
01:00 +13°C° 0 mm 2 mps 752 mmHg 89%
02:00 +13°C° 0 mm 2 mps 752 mmHg 90%
03:00 +12°C° 0 mm 2 mps 752 mmHg 91%
04:00 +12°C° 0 mm 2 mps 752 mmHg 92%
05:00 +12°C° 0 mm 2 mps 753 mmHg 93%
06:00 +13°C° 0 mm 2 mps 753 mmHg 87%
07:00 +14°C° 0 mm 2 mps 753 mmHg 82%
08:00 +16°C° 0 mm 2 mps 753 mmHg 76%
09:00 +17°C° 0 mm 3 mps 753 mmHg 69%
10:00 +18°C° 0 mm 3 mps 753 mmHg 63%
11:00 +20°C° 0 mm 3 mps 753 mmHg 57%
12:00 +20°C° 0 mm 3 mps 753 mmHg 56%
13:00 +20°C° 0 mm 3 mps 753 mmHg 55%
14:00 +20°C° 0 mm 3 mps 753 mmHg 54%
15:00 +20°C° 0 mm 3 mps 753 mmHg 57%
16:00 +20°C° 0 mm 3 mps 753 mmHg 59%
17:00 +19°C° 0 mm 3 mps 753 mmHg 62%
18:00 +18°C° 0 mm 3 mps 753 mmHg 65%
19:00 +17°C° 0 mm 2 mps 753 mmHg 69%
20:00 +15°C° 0 mm 2 mps 753 mmHg 72%
21:00 +14°C° 0 mm 2 mps 753 mmHg 76%
22:00 +13°C° 0 mm 2 mps 753 mmHg 80%
23:00 +12°C° 0 mm 1 mps 753 mmHg 83%

13 August, Thursday

Time Temperature Precipitation Wind Pressure Humidity
00:00 +11°C° 0 mm 1 mps 753 mmHg 84%
01:00 +11°C° 0 mm 1 mps 753 mmHg 85%
02:00 +10°C° 0 mm 1 mps 753 mmHg 86%
03:00 +10°C° 0 mm 1 mps 753 mmHg 86%
04:00 +10°C° 0 mm 1 mps 753 mmHg 85%
05:00 +10°C° 0 mm 1 mps 753 mmHg 85%
06:00 +10°C° 0 mm 2 mps 753 mmHg 80%
07:00 +13°C° 0 mm 2 mps 753 mmHg 75%
08:00 +14°C° 0 mm 2 mps 753 mmHg 70%
09:00 +16°C° 0 mm 2 mps 753 mmHg 65%
10:00 +17°C° 0 mm 2 mps 753 mmHg 59%
11:00 +18°C° 0 mm 3 mps 753 mmHg 54%
12:00 +19°C° 0 mm 3 mps 753 mmHg 54%
13:00 +19°C° 0 mm 3 mps 753 mmHg 54%
14:00 +19°C° 0 mm 3 mps 752 mmHg 54%
15:00 +19°C° 0 mm 3 mps 752 mmHg 54%
16:00 +19°C° 0 mm 2 mps 752 mmHg 55%
17:00 +19°C° 0 mm 2 mps 752 mmHg 56%
18:00 +18°C° 0 mm 2 mps 752 mmHg 61%
19:00 +16°C° 0 mm 1 mps 753 mmHg 67%
20:00 +15°C° 0 mm 1 mps 753 mmHg 72%
21:00 +14°C° 0 mm 1 mps 753 mmHg 75%
22:00 +13°C° 0 mm 1 mps 753 mmHg 78%
23:00 +12°C° 0 mm 1 mps 753 mmHg 81%

14 August, Friday

Time Temperature Precipitation Wind Pressure Humidity
00:00 +10°C° 0 mm 0 mps 753 mmHg 82%
01:00 +10°C° 0 mm 0 mps 753 mmHg 82%
02:00 +10°C° 0 mm 0 mps 753 mmHg 83%
03:00 +10°C° 0 mm 0 mps 753 mmHg 84%
04:00 +10°C° 0 mm 0 mps 753 mmHg 84%
05:00 +10°C° 0 mm 1 mps 753 mmHg 85%
06:00 +12°C° 0 mm 1 mps 753 mmHg 79%
07:00 +14°C° 0 mm 1 mps 753 mmHg 74%
08:00 +16°C° 0 mm 1 mps 753 mmHg 68%
09:00 +19°C° 0 mm 1 mps 753 mmHg 63%
10:00 +18°C° 0 mm 0 mps 752 mmHg 58%
11:00 +20°C° 0 mm 0 mps 752 mmHg 54%
12:00 +23°C° 0 mm 1 mps 752 mmHg 53%
13:00 +23°C° 0 mm 1 mps 752 mmHg 52%
14:00 +23°C° 0 mm 1 mps 752 mmHg 51%
15:00 +23°C° 0 mm 2 mps 751 mmHg 54%
16:00 +23°C° 0 mm 2 mps 751 mmHg 57%
17:00 +21°C° 0 mm 2 mps 751 mmHg 59%
18:00 +19°C° 0 mm 2 mps 751 mmHg 66%
19:00 +18°C° 0 mm 2 mps 751 mmHg 72%
20:00 +16°C° 0 mm 1 mps 750 mmHg 78%
21:00 +15°C° 0 mm 2 mps 750 mmHg 80%
22:00 +15°C° 0 mm 2 mps 750 mmHg 81%
23:00 +14°C° 0 mm 2 mps 750 mmHg 82%

15 August, Saturday

Time Temperature Precipitation Wind Pressure Humidity
00:00 +14°C° 0 mm 2 mps 750 mmHg 84%
01:00 +13°C° 0 mm 1 mps 750 mmHg 85%
02:00 +13°C° 0 mm 1 mps 750 mmHg 87%
03:00 +12°C° 0 mm 1 mps 750 mmHg 87%
04:00 +12°C° 0 mm 1 mps 750 mmHg 88%
05:00 +12°C° 0 mm 1 mps 750 mmHg 88%
06:00 +13°C° 0 mm 1 mps 750 mmHg 81%
07:00 +15°C° 0 mm 1 mps 750 mmHg 75%
08:00 +17°C° 0 mm 2 mps 750 mmHg 69%
09:00 +18°C° 0 mm 2 mps 750 mmHg 64%
10:00 +20°C° 0 mm 2 mps 750 mmHg 59%
11:00 +21°C° 0 mm 2 mps 750 mmHg 54%
12:00 +23°C° 0 mm 2 mps 749 mmHg 52%
13:00 +24°C° 0 mm 2 mps 749 mmHg 51%
14:00 +24°C° 0 mm 2 mps 749 mmHg 49%
15:00 +24°C° 0 mm 2 mps 749 mmHg 51%
16:00 +24°C° 0 mm 2 mps 748 mmHg 53%
17:00 +24°C° 0 mm 2 mps 748 mmHg 55%
18:00 +21°C° 0 mm 2 mps 748 mmHg 61%
19:00 +20°C° 0 mm 1 mps 748 mmHg 68%
20:00 +18°C° 0 mm 1 mps 748 mmHg 75%
21:00 +18°C° 0 mm 1 mps 748 mmHg 77%
22:00 +16°C° 0 mm 1 mps 748 mmHg 80%
23:00 +15°C° 0 mm 2 mps 748 mmHg 82%
Show more